Regional Weather Roundup
Issued by NWS

Home | Current Version | Previous Version | Graphics & Text | Print | Product List | Glossary On
Versions: 1 2 3 4 5 6 7 8 9 10 11 12 13 14 15 16 17 18 19 20 21 22 23 24 25 26 27 28 29 30 31
000
ASUS45 KGTF 181110
RWRMT
MONTANA HOURLY WEATHER ROUNDUP
NATIONAL WEATHER SERVICE GREAT FALLS MT
500 AM MDT SAT APR 18 2015

NOTE: "FAIR" INDICATES FEW OR NO CLOUDS BELOW 12000 FEET WITH NO
SIGNIFICANT WEATHER AND/OR OBSTRUCTIONS TO VISIBILITY.

MTZ001>007-043-181200-
WEST OF THE DIVIDE

CITY           SKY/WX    TMP DP  RH WIND       PRES   REMARKS
KALISPELL      CLOUDY    37  33  85 CALM      30.08R
MISSOULA       CLEAR     40  30  67 CALM      30.13R
BUTTE          CLEAR     30  25  81 CALM      30.14R
DEER LODGE       N/A     36  27  69 CALM      30.17R
EUREKA           N/A     43  34  70 CALM      30.13R
HAMILTON         N/A     41  28  60 S3        30.14R
LIBBY            N/A     37  34  87 SE5       30.12S
$$

MTZ008-052>055-181200-
SOUTHWEST MONTANA

CITY           SKY/WX    TMP DP  RH WIND       PRES   REMARKS
BOZEMAN        PTCLDY    30  25  81 SE7       30.09R WCI  23
DILLON         CLEAR     38  25  59 S8        30.10R
$$

MTZ009-010-012-014-046-048-049-054-181200-
EAST SLOPES AND CENTRAL MONTANA

CITY           SKY/WX    TMP DP  RH WIND       PRES   REMARKS
GREAT FALLS    CLEAR     38  27  64 W7        30.04R
MALMSTROM AFB  PTCLDY    46  28  49 W6        30.05R
HELENA         CLEAR     45  27  49 CALM      30.07R
$$

MTZ011-013-016-021-045-047-050-051-181200-
NORTH CENTRAL MONTANA

CITY           SKY/WX    TMP DP  RH WIND       PRES   REMARKS
HAVRE          CLOUDY    45  33  63 SW5       29.97R
LEWISTOWN      PTCLDY    41  29  62 SW6       30.01R
FORT BENTON      N/A     45  30  57 SW7       30.03R
$$

MTZ017>020-022>042-056>058-061-062-181200-
EASTERN PLAINS

CITY           SKY/WX    TMP DP  RH WIND       PRES   REMARKS
BAKER          PTCLDY    34  29  82 SE6       30.02F WCI  29
BILLINGS       CLEAR     40  32  73 SW12      29.97F
GLASGOW        CLEAR     41  29  62 SE14      29.91F
JORDAN           N/A     46  31  55 CALM      29.93S
LIVINGSTON     CLEAR     31  22  69 SW3       30.06R
MILES CITY     PTCLDY    43  34  70 S9        29.97F
SIDNEY         CLEAR     39  27  60 CALM      29.99S
WOLF POINT     CLEAR     37  28  70 NE7       29.95S WCI  32
BIG TIMBER       N/A     41  21  45 W15       30.02S
FORSYTH          N/A     50  37  62 W6        29.95S
PLENTYWOOD       N/A     43  27  52 SE10      29.96F
POPLAR           N/A     37  28  70 CALM      29.96S
$$

REGIONAL REPORTS...DAKOTAS

CITY           SKY/WX    TMP DP  RH WIND       PRES   REMARKS
WILLISTON      CLEAR     48  26  42 S6        30.00F
MINOT          CLEAR     32  25  75 E6        30.05F WCI  26
DICKINSON      PTCLDY    35  26  69 SE10      30.01S WCI  27
BEACH          FAIR      36  27  69 SE8       30.01F WCI  29
CROSBY         FAIR      43  25  49 S15G23    29.99S
WATFORD CITY   FAIR      39  25  56 SE6       29.99F
BISMARCK       PTCLDY    39  28  64 NE6       30.07F
GRAND FORKS    CLEAR     35  28  75 E7        30.14F WCI  29
FARGO          CLEAR     37  23  56 NE7       30.10S WCI  32
BUFFALO SD       N/A     44  34  67 W6        29.96F
RAPID CITY     LGT RAIN  48  45  89 E6        30.01S
$$

REGIONAL REPORTS...WYOMING/IDAHO/WASHINGTON

CITY           SKY/WX    TMP DP  RH WIND       PRES   REMARKS
GILLETTE       CLEAR     40  37  89 S3        30.01S
SHERIDAN       PTCLDY    35  30  82 CALM      29.99S
BUFFALO WY     CLEAR     43  29  57 SW5       30.00F
CODY           PTCLDY    37  30  75 CALM      30.01S
YELLOWSTONE LA   N/A     22  19  89 CALM      30.14R
IDAHO FALLS    CLEAR     35  28  75 CALM      30.04S
SALMON         CLEAR     34  23  64 CALM      30.12S
BOISE          CLEAR     46  33  60 CALM      30.07R
SPOKANE        PTCLDY    49  26  41 NW13      30.16R
$$

REGIONAL REPORTS...ALBERTA

CITY           SKY/WX    TMP DP  RH WIND       PRES   REMARKS
EDMONTON       PTCLDY    36  30  80 W14G24    30.11R WCI  27
CALGARY        MOCLDY    37  32  81 NW12G20   30.19R WCI  30
LETHBRIDGE     LGT RAIN  41  37  87 N16G25    30.15R
MEDICINE HAT   CLOUDY    41  37  87 W13       30.08R
$$

REGIONAL REPORTS...SASKATCHEWAN

CITY           SKY/WX    TMP DP  RH WIND       PRES   REMARKS
SWIFT CURRENT  MOCLDY    46  34  61 NW17G25   29.91R
REGINA         PTCLDY    41  30  65 SE23G29   29.90F
SASKATOON      PTCLDY    39  36  87 W9        29.87R
$$



USA.gov is the U.S. government's official web portal to all federal, state and local government web resources and services.